View from above orbital plane
|
View from above satellite
|
Ground track
|
The orbit data is extracted from the following two-line orbital elements,
1 40911U 15049N 22177.98843488 .00005247 00000-0 24838-3 0 9991
2 40911 97.4898 181.9113 0011977 330.8617 81.3568 15.19725245374308
Epoch (UTC): | 26 June 2022 23:43:20 |
Eccentricity: | 0.0011977 |
inclination: | 97.4898° |
perigee height: | 498 km |
apogee height: | 515 km |
right ascension of ascending node: | 181.9113° |
argument of perigee: | 330.8617° |
revolutions per day: | 15.19725245 |
mean anomaly at epoch: | 81.3568° |
orbit number at epoch: | 37430 |
The dashed part of the orbit path shows where the satellite is in the earth's shadow,
|
|